Flag for Germany Weather past 2 weeks in Wiehl, North Rhine-Westphalia, Germany

Now
59 °F

Partly sunny.


Feels Like: 56 °F
Forecast: 43 / 73 °F
Wind: 15 mph from West

Location: Koeln / Bonn

Current Time: Jun 3, 2015 at 9:43:56 AM

Latest Report: Jun 3, 2015 at 9:20 AM


Visibility: N/A

Pressure: 30.12 "Hg

Humidity: 63%

Dew point: 46 °F

Location of WiehlLocation

Historic Weather in Wiehl — Graph

°F

Wiehl temperature yesterday

Maximum temperature yesterday: 73 °F (at 5:20 PM)
Minimum temperature yesterday: 48 °F (at 12:20 AM)
Average temperature yesterday: 61 °F

Past Weeks' High & Low Weather Summary

 TemperatureHumidityPressure
High73 °F (Jun 2, 5:20 PM)94% (May 25, 12:50 PM)30.33 "Hg (May 25, 12:50 PM)
Low41 °F (May 20, 5:50 AM)30% (May 22, 1:50 PM)29.77 "Hg (May 19, 8:20 AM)
Average56 °F65%30.03 "Hg
* Reported May 19 8:20 AM — Jun 3 8:20 AM, Wiehl, Weather by CustomWeather, © 2015

Note: Actual official high and low records may vary slightly from our data, if they occured in-between our weather recording intervals... More about our weather records

Advertising

Wiehl weather history for previous 24 hours

 ConditionsComfort  
Time TempWeatherWind HumidityBarometerVisibility
8:20 AM
Wed, Jun 3
57 °FDrizzle. Broken clouds.13 mph77%30.09 "HgN/A
7:50 AM57 °FBroken clouds.12 mph77%30.09 "HgN/A
7:20 AM57 °FLight rain. Broken clouds.21 mph82%30.09 "HgN/A
6:50 AM61 °FLight rain. Broken clouds.8 mph77%30.04 "HgN/A
6:20 AM61 °FPassing clouds.7 mph72%30.04 "HgN/A
5:20 AM61 °FPassing clouds.8 mph72%30.01 "HgN/A
4:50 AM61 °FClear.8 mph72%30.01 "Hg10 mi
4:20 AM61 °FClear.9 mph72%30.01 "Hg10 mi
3:50 AM61 °FPassing clouds.7 mph72%30.01 "HgN/A
3:20 AM59 °FPassing clouds.10 mph77%30.01 "HgN/A
2:50 AM59 °FPassing clouds.8 mph77%30.01 "HgN/A
2:20 AM59 °FPassing clouds.5 mph77%30.01 "HgN/A
1:50 AM59 °FPassing clouds.2 mph77%29.98 "HgN/A
1:20 AM61 °FPassing clouds.3 mph72%29.98 "HgN/A
12:50 AM64 °FPassing clouds.8 mph64%29.98 "HgN/A
12:20 AM63 °FPassing clouds.7 mph68%29.98 "HgN/A
11:20 PM
Tue, Jun 2
63 °FClear.7 mph68%29.95 "Hg10 mi
10:50 PM68 °FClear.9 mph56%29.95 "Hg10 mi
10:20 PM66 °FSunny.8 mph60%29.98 "Hg10 mi
9:50 PM68 °FSunny.8 mph56%29.95 "Hg10 mi
9:20 PM70 °FSunny.12 mph53%29.95 "Hg10 mi
8:50 PM72 °FSunny.13 mph50%29.95 "Hg10 mi
8:20 PM72 °FSunny.15 mph50%29.95 "Hg10 mi
7:50 PM72 °FSunny.14 mph50%29.92 "Hg10 mi
7:20 PM73 °FSunny.14 mph44%29.92 "Hg10 mi
6:50 PM72 °FSunny.12 mph50%29.92 "Hg10 mi
6:20 PM72 °FSunny.14 mph47%29.92 "Hg10 mi
5:50 PM72 °FSunny.14 mph47%29.92 "Hg10 mi
5:20 PM73 °FSunny.13 mph50%29.92 "Hg10 mi
4:50 PM72 °FSunny.9 mph50%29.92 "Hg10 mi
4:20 PM70 °FPartly sunny.6 mph53%29.92 "HgN/A
3:50 PM70 °FPartly sunny.10 mph57%29.92 "HgN/A
3:20 PM70 °FPartly sunny.13 mph53%29.92 "HgN/A
2:50 PM68 °FPartly sunny.15 mph56%29.89 "HgN/A
2:20 PM68 °FPartly sunny.13 mph56%29.92 "HgN/A
1:50 PM68 °FPartly sunny.13 mph53%29.89 "HgN/A
1:20 PM66 °FPartly sunny.13 mph56%29.92 "HgN/A
12:50 PM64 °FPartly sunny.13 mph60%29.92 "HgN/A
12:20 PM63 °FPartly sunny.14 mph59%29.92 "HgN/A
11:50 AM63 °FPartly sunny.14 mph64%29.92 "HgN/A
11:20 AM61 °FSunny.15 mph68%29.92 "Hg10 mi
10:50 AM59 °FSunny.15 mph72%29.92 "Hg10 mi
10:20 AM57 °FSunny.12 mph82%29.92 "Hg10 mi
9:50 AM57 °FSunny.14 mph82%29.92 "Hg10 mi
9:20 AM55 °FLight rain. Clear.13 mph82%29.92 "HgN/A
Weather by CustomWeather, © 2015

See weather overviewHow to use our weather pages